Weather History for Livingston, MT

Change the Weather History Date:

Friday, April 19, 2013

  Actual Average Record
Temperature  
Mean Temperature 44 °F 43 °F  
Max Temperature 57 °F 56 °F 86 °F (1962)
Min Temperature 30 °F 30 °F 12 °F (1972)
Degree Days  
Heating Degree Days 22 22  
Month to date heating degree days 463  
Since 1 July heating degree days 6722  
Cooling Degree Days 0 0  
Month to date cooling degree days 0  
Year to date cooling degree days 0  
Moisture  
Dew Point 26 °F    
Average Humidity 54    
Maximum Humidity 81    
Minimum Humidity 30    
Precipitation  
Precipitation 0.03 in 0.06 in 0.64 in (1987)
Month to date precipitation 1.02  
Year to date precipitation 2.85  
Sea Level Pressure  
Sea Level Pressure 29.93 in    
Wind  
Wind Speed 16 mph (WSW)    
Max Wind Speed 32 mph    
Max Gust Speed 38 mph    
Visibility 10 miles    
Events Rain    
T = Trace of Precipitation, MM = Missing Value Source: NWS Daily Summary

Daily Weather History Graph

Daily Weather History Graph

Search for Another Location

Airport:

Trip Planner

Search our weather history database for the weather conditions in past years. The results will help you decide how hot, cold, wet, or windy it might be!

Date:

Astronomy

Apr. 19, 2013 Rise Set
Actual Time 6:28 AM MDT 8:13 PM MDT
Civil Twilight 5:56 AM MDT 8:45 PM MDT
Nautical Twilight 5:18 AM MDT 9:24 PM MDT
Astronomical Twilight 4:36 AM MDT 10:06 PM MDT
Moon 1:43 PM MDT (4/19) 3:05 AM MDT (4/19)
Length of Visible Light 14h 48m
Length of Day
13h 45m
Waxing Gibbous, 62% of the Moon is Illuminated
Apr 19
Waxing Gibbous
Apr 25
Full
May 2
Last Quarter
May 9
New
May 17
First Quarter

Hourly Weather History & Observations

Time (MDT) Temp. Windchill Dew Point Humidity Pressure Visibility Wind Dir Wind Speed Gust Speed Precip Events Conditions
12:53 AM 33.1 °F 27.7 °F 19.0 °F 56% 30.13 in 10.0 mi WNW 5.8 mph - N/A   Overcast
1:53 AM 30.9 °F 24.3 °F 19.0 °F 61% 30.12 in 10.0 mi West 6.9 mph - N/A   Clear
2:53 AM 34.0 °F 27.2 °F 19.9 °F 56% 30.09 in 10.0 mi West 8.1 mph - N/A   Clear
3:53 AM 36.0 °F 28.0 °F 19.9 °F 52% 30.06 in 10.0 mi West 11.5 mph - N/A   Clear
4:53 AM 37.0 °F 27.4 °F 19.0 °F 48% 30.04 in 10.0 mi West 17.3 mph 23.0 mph N/A   Clear
5:53 AM 36.0 °F 27.1 °F 19.9 °F 52% 30.06 in 10.0 mi WSW 13.8 mph - N/A   Mostly Cloudy
6:53 AM 37.9 °F 27.9 °F 19.9 °F 48% 30.03 in 10.0 mi West 19.6 mph - N/A   Scattered Clouds
7:53 AM 37.9 °F 29.2 °F 19.9 °F 48% 30.02 in 10.0 mi West 15.0 mph - N/A   Scattered Clouds
8:53 AM 43.0 °F 34.5 °F 19.9 °F 40% 30.00 in 10.0 mi WSW 19.6 mph 27.6 mph N/A   Overcast
9:53 AM 46.9 °F - 21.0 °F 36% 29.97 in 10.0 mi WSW 21.9 mph 31.1 mph N/A   Overcast
10:53 AM 50.0 °F - 21.9 °F 33% 29.92 in 10.0 mi WSW 28.8 mph 36.8 mph N/A   Mostly Cloudy
11:53 AM 50.0 °F - 24.1 °F 36% 29.92 in 10.0 mi SW 27.6 mph 34.5 mph N/A   Overcast
12:53 PM 53.1 °F - 26.1 °F 35% 29.90 in 10.0 mi WSW 25.3 mph 35.7 mph N/A   Overcast
1:53 PM 53.1 °F - 25.0 °F 34% 29.86 in 10.0 mi SW 19.6 mph 36.8 mph N/A   Overcast
2:53 PM 57.0 °F - 26.1 °F 30% 29.82 in 10.0 mi SW 24.2 mph 32.2 mph N/A   Overcast
3:53 PM 52.0 °F - 28.9 °F 41% 29.83 in 10.0 mi West 18.4 mph 25.3 mph N/A   Overcast
4:53 PM 48.9 °F - 30.9 °F 50% 29.82 in 10.0 mi SW 28.8 mph 34.5 mph 0.00 in   Overcast
5:53 PM 48.0 °F - 30.0 °F 50% 29.82 in 10.0 mi SW 32.2 mph 38.0 mph N/A   Overcast
6:53 PM 46.9 °F - 33.1 °F 59% 29.82 in 10.0 mi SW 25.3 mph 35.7 mph 0.00 in   Overcast
7:16 PM 42.8 °F 33.8 °F 35.6 °F 76% 29.83 in 3.0 mi SW 21.9 mph 36.8 mph 0.02 in Rain Rain
7:34 PM 42.8 °F 35.1 °F 37.4 °F 81% 29.82 in 10.0 mi WSW 16.1 mph - 0.02 in   Overcast
7:53 PM 43.0 °F 33.5 °F 35.1 °F 74% 29.83 in 10.0 mi SW 24.2 mph 33.4 mph 0.02 in   Mostly Cloudy
8:53 PM 42.1 °F 33.1 °F 36.0 °F 79% 29.85 in 10.0 mi WSW 20.7 mph 29.9 mph 0.01 in   Overcast
9:53 PM 42.1 °F 33.6 °F 34.0 °F 73% 29.83 in 10.0 mi WSW 18.4 mph - 0.00 in   Clear
10:53 PM 42.1 °F 34.2 °F 34.0 °F 73% 29.85 in 10.0 mi West 16.1 mph - N/A   Mostly Cloudy
11:53 PM 39.9 °F 34.5 °F 33.1 °F 77% 29.85 in 10.0 mi West 8.1 mph - N/A   Scattered Clouds